Theta_e
338 337 336 335 334 334 335 337 339 342 345 349 351 350 349 345 344 345 345 344 344 344 345 345 345 344 345 345 344 345 344 346 351 351 347 344 346 351 353 352 352 353
337 338 337 336 335 334 334 333 335 338 339 342 347 351 350 345 343 343 343 344 344 344 345 344 344 343 343 344 344 344 344 343 347 350 348 346 348 352 354 354 353 352
336 336 336 336 335 335 334 334 332 334 337 337 340 344 346 347 346 343 342 343 342 342 342 342 342 342 342 343 343 343 344 343 344 348 348 345 347 351 354 355 355 354
339 336 334 334 336 335 335 336 334 333 336 337 337 339 342 346 347 345 343 342 341 341 340 340 341 341 341 341 342 342 343 342 341 344 345 343 343 347 350 354 355 356
343 340 336 333 334 335 334 335 335 334 334 335 336 337 335 338 342 343 344 342 341 339 339 340 339 339 340 340 342 341 341 343 343 341 341 343 344 345 348 351 351 351
345 344 341 336 333 333 333 333 333 333 334 333 335 336 334 332 336 340 343 342 342 341 341 341 340 338 339 338 340 340 338 343 347 345 342 342 345 348 350 351 348 347
346 345 344 341 336 332 331 331 332 332 332 333 333 333 333 331 332 335 338 339 342 344 345 344 340 336 336 337 339 340 337 339 344 343 343 343 342 344 348 349 346 344
346 346 346 345 341 336 332 330 330 331 331 332 332 331 331 331 331 332 333 334 338 340 342 341 337 333 336 337 338 339 338 339 341 340 340 342 340 339 342 344 343 342
347 346 346 346 345 342 338 334 332 331 329 330 331 331 331 330 329 331 330 331 333 335 336 336 334 333 335 336 337 337 336 337 341 338 334 333 333 333 336 338 340 340
347 347 346 346 346 346 344 342 340 338 333 329 329 332 333 331 328 329 330 329 329 331 332 333 333 333 333 334 335 335 332 331 333 332 328 327 327 329 332 335 335 336
347 347 347 346 346 347 347 346 347 346 342 336 331 331 334 334 330 328 329 329 328 329 329 330 331 331 333 333 333 332 330 327 327 327 327 326 326 326 328 330 330 333
348 348 348 348 347 347 349 348 348 349 348 345 339 335 334 334 332 328 328 328 327 327 327 328 328 329 330 331 331 331 328 326 326 327 326 326 326 326 326 326 325 326
351 349 348 348 347 347 348 349 350 349 349 348 347 343 340 338 336 331 327 327 327 327 326 326 326 327 329 329 329 330 328 326 327 327 326 326 326 326 329 332 330 328
352 352 351 349 348 347 347 348 350 350 349 349 348 347 345 345 343 339 333 328 327 327 327 327 327 326 327 327 327 328 327 326 326 326 327 328 327 326 328 333 335 335
350 351 352 350 348 347 347 348 348 349 349 349 348 347 347 347 347 346 343 338 333 329 327 326 327 327 326 326 326 326 326 326 325 326 326 326 326 327 327 329 330 334
348 348 349 348 347 347 347 347 347 348 349 348 347 347 347 347 347 347 348 347 344 339 334 330 328 327 326 326 326 325 325 326 325 326 325 325 325 325 326 328 330 333
350 348 347 347 347 347 347 347 346 347 347 348 347 347 346 347 347 347 347 348 348 347 345 341 337 332 328 326 326 326 326 326 326 325 325 325 325 325 326 328 330 332
353 350 347 347 347 347 347 347 347 346 346 346 346 346 347 347 347 347 347 347 348 348 348 348 347 341 334 330 328 328 327 326 326 327 328 329 329 328 327 328 329 331
354 353 350 348 347 347 347 347 347 347 347 347 346 347 347 346 346 347 347 347 348 348 349 349 350 348 343 336 333 331 330 329 328 328 330 333 334 333 331 331 331 331
354 355 354 352 349 347 348 348 348 348 348 348 348 348 348 347 347 347 347 347 348 348 349 349 350 351 349 345 339 336 334 333 332 332 333 334 335 336 336 335 334 334
354 356 357 356 352 348 348 348 348 349 349 349 348 349 350 349 349 349 349 348 348 348 349 350 350 351 352 350 347 344 342 340 339 339 338 338 337 337 337 337 337 336
353 353 355 356 355 351 350 349 349 349 349 349 349 350 351 352 352 352 352 352 351 350 349 350 351 351 352 352 352 350 350 349 347 346 345 343 341 339 338 337 337 337
351 350 352 354 355 354 354 353 352 351 351 350 350 350 351 352 353 354 354 354 354 353 352 351 351 352 353 353 353 352 352 352 352 351 350 348 345 344 342 340 338 336
350 350 351 352 353 354 355 356 355 354 354 354 354 353 352 352 353 353 354 355 355 355 355 354 353 353 353 353 353 353 353 353 353 353 353 352 350 348 346 344 340 337
350 351 351 351 352 354 354 355 355 355 356 355 355 355 354 353 353 353 353 355 356 356 356 356 355 355 354 354 354 354 354 354 354 354 354 354 353 351 350 347 343 339
348 350 351 351 352 353 354 355 355 355 355 355 355 355 355 355 355 354 354 354 354 354 355 356 356 357 356 355 355 354 355 355 355 355 355 355 354 354 353 351 346 341
Wind_Speed
24 23 22 21 20 20 20 19 19 18 16 15 13 13 13 13 12 11 11 10 10 9 9 9 8 8 8 7 7 6 6 5 5 6 5 3 3 3 3 4 3 4
25 24 24 23 22 21 20 20 19 19 19 17 15 14 14 14 13 12 12 11 10 10 10 9 9 9 9 9 8 7 7 6 6 6 6 5 5 5 4 4 4 5
25 25 25 24 23 22 20 20 20 19 19 19 18 17 16 14 14 14 13 12 11 11 10 10 10 10 10 9 9 8 8 7 7 7 7 6 6 6 5 5 4 5
24 25 26 25 24 23 22 21 21 20 20 19 19 19 18 16 16 15 15 14 13 12 12 11 11 11 11 10 10 10 10 9 8 8 8 7 7 7 7 6 6 6
22 23 25 25 25 25 24 23 23 21 20 20 19 19 19 19 18 16 16 16 15 14 13 13 12 12 12 11 11 11 11 10 9 9 9 8 8 7 8 8 7 7
23 22 23 24 25 26 26 25 24 22 21 20 20 20 20 20 19 18 18 17 16 15 14 14 14 14 13 13 12 12 12 11 10 10 9 9 8 8 8 9 9 8
24 23 22 22 24 26 27 26 24 23 22 21 21 20 20 20 20 19 19 19 17 16 15 15 16 15 14 14 13 13 13 12 12 11 10 9 9 9 9 10 10 9
25 24 23 22 22 24 25 25 25 24 24 23 22 21 20 20 20 20 20 20 19 19 18 17 18 17 15 15 15 14 14 13 13 12 11 11 11 10 10 10 10 9
26 26 25 23 23 23 23 24 24 25 25 25 23 22 22 21 21 21 21 21 20 21 20 20 20 18 17 17 17 16 15 14 13 13 11 10 10 10 9 9 9 9
27 27 27 26 24 24 24 23 23 23 24 25 25 24 23 23 22 22 22 22 22 22 22 21 21 21 20 19 19 18 17 15 14 14 13 11 11 10 9 10 10 10
28 28 28 28 27 26 25 24 23 23 23 24 25 25 25 24 24 23 23 23 23 22 23 22 22 22 22 21 21 20 19 17 17 16 15 14 13 13 12 12 12 12
28 28 28 28 28 28 26 25 24 24 24 24 24 25 26 26 26 26 25 24 24 23 23 23 23 23 23 23 22 22 21 20 19 19 18 17 16 15 15 14 14 14
25 26 27 28 28 28 27 26 25 25 25 25 24 24 24 26 27 28 27 26 25 25 25 25 24 24 24 24 24 24 24 23 22 21 20 20 19 18 17 17 16 16
24 24 25 26 28 28 28 27 26 26 26 26 26 25 24 24 25 26 27 27 27 27 27 27 26 26 26 26 26 26 26 26 25 24 23 23 22 22 20 19 18 18
26 24 24 26 27 28 28 28 28 27 27 28 29 28 26 25 25 25 26 27 28 29 29 29 29 29 29 29 29 28 28 28 27 27 26 26 25 25 23 22 22 20
27 26 26 27 28 28 27 28 28 28 28 29 30 30 29 28 27 26 26 26 28 29 30 30 31 32 32 32 31 31 30 30 30 30 29 28 28 27 26 25 24 23
25 27 27 28 28 28 27 27 28 29 29 30 31 31 31 29 29 29 28 27 27 28 29 31 32 33 34 33 33 32 32 32 32 31 31 30 29 29 28 27 26 26
23 25 27 28 27 28 28 29 29 29 29 30 31 31 31 31 31 30 29 28 28 28 29 29 30 33 35 35 33 33 32 32 33 33 32 32 31 31 31 31 30 29
21 21 23 26 26 26 26 27 28 28 27 28 29 29 30 32 31 31 30 29 29 30 30 29 29 31 34 35 34 34 33 33 34 34 34 33 32 32 33 33 32 31
19 18 19 21 23 25 26 25 25 25 24 24 26 27 29 30 30 30 30 30 30 30 30 30 30 30 32 33 33 34 34 34 34 35 35 35 34 34 34 34 34 33
18 16 15 17 20 24 26 25 24 24 22 22 24 25 26 28 28 28 29 30 30 30 30 30 30 30 30 30 31 32 32 32 33 34 35 36 37 37 36 36 36 35
18 17 16 17 19 23 25 25 25 25 23 23 24 24 23 23 25 25 25 26 28 29 30 30 30 30 30 30 29 29 28 29 30 32 34 36 37 38 39 38 38 37
19 21 21 20 20 21 21 22 23 25 25 24 25 26 24 23 22 23 22 23 25 27 29 30 30 30 30 29 29 28 27 27 28 30 33 35 37 38 39 39 39 38
20 23 23 22 22 21 20 19 20 21 21 21 21 23 24 23 22 22 22 22 23 25 26 29 29 29 29 29 29 28 27 28 28 29 31 34 36 37 38 39 40 40
15 19 21 23 23 21 19 19 19 18 17 18 20 20 21 22 22 22 23 23 24 24 25 28 29 29 29 29 29 28 28 28 28 29 31 33 35 36 37 39 40 41
10 13 16 20 21 20 18 18 18 19 18 18 20 21 21 22 23 24 26 28 29 28 26 26 28 29 30 31 30 29 28 28 29 30 32 33 34 35 36 38 40 41
Wind_Direction
225 226 226 226 226 225 225 224 223 220 217 216 216 219 220 219 217 215 216 218 216 214 213 214 215 213 214 219 222 225 232 230 227 243 252 249 248 245 254 264 263 262
225 226 227 228 228 227 227 227 227 226 225 224 220 221 224 222 219 218 218 218 219 219 217 216 216 215 215 219 223 227 233 235 233 245 256 252 248 246 249 261 265 266
227 227 227 227 228 229 229 231 230 228 228 230 228 228 228 225 222 220 219 220 222 224 224 221 219 219 219 220 224 228 233 237 235 239 248 249 245 245 247 249 254 261
228 228 227 227 228 230 230 232 233 230 227 228 230 231 229 227 225 222 219 221 224 227 228 226 224 224 223 224 226 230 233 236 238 236 240 246 245 243 243 241 240 243
228 228 228 227 227 229 230 231 232 232 229 228 228 230 230 229 228 225 222 223 224 227 231 232 230 228 228 228 229 233 235 237 241 242 241 244 247 249 248 246 243 237
229 228 228 228 227 228 229 230 232 232 231 231 230 229 230 229 228 227 227 227 226 228 232 234 235 233 233 234 233 235 238 235 237 243 244 246 249 249 248 247 248 246
231 230 228 228 228 228 228 229 230 231 232 232 232 230 230 229 228 227 228 229 228 229 230 233 236 235 235 237 235 236 239 236 236 241 244 248 252 252 249 249 253 254
232 232 231 229 229 228 228 228 229 230 231 232 233 232 230 229 228 228 230 231 230 230 231 233 236 235 235 238 237 237 241 241 241 244 245 247 252 254 253 254 257 259
235 235 235 232 231 231 230 229 229 230 231 231 233 234 232 230 228 228 231 232 232 233 233 233 235 234 233 238 240 239 241 241 241 243 243 243 247 249 251 254 257 261
238 237 238 236 234 234 233 231 229 231 234 233 231 232 233 233 231 228 230 233 232 234 235 234 235 235 233 235 239 240 239 238 238 240 242 243 246 248 247 250 254 258
240 239 240 240 238 236 235 235 231 229 233 236 234 232 232 234 235 232 231 232 232 233 236 237 236 236 236 235 238 239 238 236 238 241 245 247 250 251 251 251 253 255
240 240 240 240 240 239 236 235 234 230 231 236 238 236 234 235 237 237 235 234 233 232 234 237 238 238 237 236 236 238 238 239 241 245 249 251 253 256 257 258 258 258
237 240 242 241 242 242 238 236 235 233 232 235 239 239 237 235 238 241 240 237 236 236 235 236 236 237 238 236 235 238 240 241 243 247 251 254 256 259 261 261 262 262
236 237 240 242 243 244 244 240 237 236 236 237 241 243 241 237 236 239 243 243 240 239 238 239 238 237 237 237 236 237 240 244 246 247 251 255 258 261 262 261 261 262
244 239 238 243 247 248 248 246 242 240 241 242 245 248 247 244 239 237 241 245 246 243 240 240 241 240 238 237 237 237 239 243 247 249 251 255 259 261 262 263 263 261
252 250 247 249 253 254 253 253 251 247 246 247 251 252 252 250 247 244 242 243 247 248 245 242 242 242 241 239 238 239 241 243 247 250 253 254 257 259 260 261 263 263
254 257 256 254 256 258 258 258 257 254 250 251 255 257 257 256 254 252 248 246 247 250 250 248 245 244 244 243 241 240 241 243 246 250 252 253 254 256 258 259 260 262
245 255 261 259 257 259 260 261 261 259 257 257 259 261 262 261 260 257 254 251 249 249 250 250 249 248 246 245 244 243 242 243 246 249 252 254 255 256 258 258 258 259
241 250 259 261 260 260 260 260 262 262 261 260 261 262 263 264 264 263 260 257 254 252 251 250 250 252 251 248 246 245 243 243 245 247 250 253 254 256 258 258 258 258
241 245 249 253 257 261 260 258 259 261 261 261 261 260 260 262 263 262 263 261 258 255 255 253 251 253 254 252 249 246 245 244 244 246 248 250 251 253 255 257 257 257
237 239 242 246 252 257 259 258 258 259 261 262 261 258 257 259 261 261 261 262 260 258 258 257 255 253 253 253 252 249 247 246 246 246 248 249 250 251 252 253 255 256
239 242 245 249 254 259 261 261 261 261 261 261 261 256 250 251 256 259 259 259 259 260 260 259 256 254 252 252 252 251 250 249 248 247 248 248 249 250 251 252 252 253
237 239 240 242 249 255 258 259 260 261 261 261 261 258 251 245 246 251 255 256 257 259 260 259 256 254 253 251 250 250 250 249 248 248 248 249 249 249 250 251 251 251
239 239 236 236 242 248 251 251 252 253 254 253 253 254 252 245 240 242 247 252 255 256 257 259 258 257 256 252 249 249 248 247 247 247 249 250 251 250 250 250 250 250
250 247 242 240 244 248 251 253 252 249 247 246 245 245 246 244 240 238 239 242 247 249 252 257 260 261 261 257 253 250 249 248 247 247 248 249 251 252 252 251 250 250
256 253 250 247 246 247 247 251 254 252 247 246 245 243 240 239 239 239 237 236 236 237 241 247 254 259 263 263 260 255 252 251 250 249 248 248 249 251 252 253 252 251